Content
SEND FEEDBACK

Daily
Averages
Monthly
Summary
United States of America

CHESTERFIELD, MISSOURI


Home > North America > United States > Missouri
Elevation: 559 feet     Latitude: 38 41N     Longitude: 090 31W

WEATHER
 
SELECT A DAY
Number of Records: 205,815;   Date Range: 1/1/95 - 9/29/14
 
SHARE

PRINT THIS DATA

[ ← Previous Day ]
WEATHER ALMANAC - JULY 2, 2013
[ Next Day → ]
[ °C ]   °F
Weather ElementAverageHighLow
Temperature65.2 °F70 °F (1:51 am)62.1 °F (8:51 am)
Dewpoint57.9 °F61 °F (7:51 pm)54 °F (1:51 am)
Humidity78 %94 % (12:32 pm)57 % (1:51 am)
Barometer30.00 in30.05 in (12:32 pm)29.93 in (2:51 am)
Wind Speed8.5 mph17.3 mph (2:13 am)
Wind Gust20.7 mph (2:13 am)
Weather ElementAverage
Visibility7.3 mi
Wind DirectionWSW (260.3 °)

Weather ElementTotal
Precipitation0.87 in
Cooling Degree Days1.1 (Base 65)
Growing Degree Days16.1 (Base 50)
Averaged from 36 records on July 2, 2013
WEATHER CONDITIONS BREAKOUT
WIND DIRECTION BREAKOUT
WEATHER BY HOUR - JULY 2, 2013
[ °C ]   °F
Local TimeTemperatureDewpointHumidityBarometerVisibilityWind DirectionWind SpeedGust SpeedPrecipitationEventsConditions
1:51 AM70.0 °F54.0 °F57 %29.95 in10.0 miNE (40°)9.2 mph0.00 inRainLight Rain
1:58 AM69.8 °F55.4 °F60 %29.98 in10.0 miNE (50°)9.2 mph0.00 inRainLight Rain
2:13 AM69.8 °F57.2 °F64 %29.97 in9.0 miNE (40°)17.3 mph20.7 mph0.00 inRainLight Rain
2:51 AM69.1 °F55.0 °F61 %29.93 in10.0 miNNE (20°)13.8 mph0.00 inRainLight Rain
3:51 AM70.0 °F55.9 °F61 %29.93 in10.0 miNorth (10°)9.2 mph0.00 inOvercast
4:15 AM69.8 °F57.2 °F64 %29.97 in10.0 miNorth (360°)6.9 mphOvercast
4:48 AM69.8 °F55.4 °F60 %29.97 in10.0 miNorth (10°)10.4 mph0.00 inRainLight Rain
4:51 AM68.0 °F55.0 °F63 %29.94 in10.0 miNorth (360°)10.4 mph0.00 inRainLight Rain
5:51 AM66.9 °F55.0 °F66 %29.95 in9.0 miNorth (360°)9.2 mph0.00 inRainLight Rain
6:13 AM66.2 °F55.4 °F68 %29.99 in10.0 miNorth (360°)9.2 mph0.00 inRainLight Rain
6:29 AM66.2 °F55.4 °F68 %29.99 in10.0 miNorth (360°)9.2 mph0.00 inRainLight Rain
6:51 AM64.9 °F55.9 °F73 %29.97 in7.0 miNorth (360°)11.5 mph0.00 inRainLight Rain
7:51 AM64.0 °F57.0 °F78 %29.99 in6.0 miNorth (360°)6.9 mph0.01 inRainLight Rain
8:51 AM62.1 °F57.9 °F86 %30.00 in5.0 miNNW (340°)9.2 mph0.04 inRainLight Rain
9:44 AM62.6 °F57.2 °F82 %30.02 in4.0 miNorth (350°)10.4 mph0.04 inRainLight Rain
9:51 AM62.1 °F57.9 °F86 %30.00 in4.0 miNorth (350°)10.4 mph0.05 inRainLight Rain
10:16 AM62.6 °F57.2 °F82 %30.03 in5.0 miNorth (350°)9.2 mph0.05 inRainLight Rain
10:45 AM62.6 °F59.0 °F88 %30.03 in5.0 miNNW (340°)10.4 mph0.08 inRainLight Rain
10:51 AM62.1 °F59.0 °F90 %30.01 in5.0 miNorth (350°)8.1 mph0.08 inRainLight Rain
10:59 AM62.6 °F59.0 °F88 %30.03 in4.0 miNNW (340°)9.2 mph0.01 inRainLight Rain
11:45 AM62.6 °F59.0 °F88 %30.04 in5.0 miNorth (350°)10.4 mph0.06 inRainLight Rain
11:51 AM63.0 °F59.0 °F87 %30.02 in5.0 miNorth (350°)9.2 mph0.06 inRainLight Rain
12:32 PM62.6 °F60.8 °F94 %30.05 in4.0 miNorth (350°)6.9 mph0.04 inRainLight Rain
12:51 PM64.0 °F60.1 °F87 %30.02 in4.0 miNNW (340°)10.4 mph0.07 inRainLight Rain
1:32 PM64.4 °F60.8 °F88 %30.04 in5.0 miNNW (340°)8.1 mph0.05 inRainLight Rain
1:51 PM64.0 °F60.1 °F87 %30.03 in5.0 miNorth (350°)6.9 mph0.07 inRainLight Rain
2:51 PM64.0 °F59.0 °F84 %30.02 in6.0 miNorth (360°)10.4 mph0.06 inRainLight Rain
3:51 PM63.0 °F55.9 °F78 %30.03 in6.0 miNorth (350°)12.7 mph0.03 inRainLight Rain
4:51 PM64.0 °F55.9 °F75 %30.03 in8.0 miNorth (360°)6.9 mph0.01 inRainLight Rain
5:51 PM64.9 °F57.9 °F78 %30.02 in7.0 miNorth (10°)5.8 mph0.03 inRainLight Rain
6:51 PM64.9 °F60.1 °F84 %30.02 in10.0 miWNW (290°)4.6 mph0.03 inMostly Cloudy
7:51 PM66.0 °F61.0 °F84 %30.02 in7.0 miWest (270°)4.6 mphMostly Cloudy
8:51 PM64.9 °F61.0 °F87 %30.02 in10.0 miWest (280°)4.6 mphMostly Cloudy
9:51 PM64.9 °F61.0 °F87 %30.04 in10.0 miCalmMostly Cloudy
10:51 PM64.9 °F61.0 °F87 %30.04 in9.0 miWest (260°)3.5 mphOvercast
11:51 PM64.9 °F61.0 °F87 %30.04 in10.0 miCalmOvercast
Hourly data recorded from KSTL, located miles away from Chesterfield, Missouri







STORIES FROM OUR PARTNERS